Regional Weather Roundup
Issued by NWS Bismarck, ND

Home | Current Version | Previous Version | Text Only | Print | Product List | Glossary On
Versions: 1 2 3 4 5 6 7 8 9 10 11 12 13 14 15 16 17 18 19 20 21 22 23 24 25 26 27 28 29 30 31 32 33 34 35 36 37 38 39 40 41 42 43 44 45 46 47 48 49 50
000
ASUS43 KBIS 031802
RWRBIS

NWR BROADCAST TEXT
NATIONAL WEATHER SERVICE BISMARCK ND
100 PM CDT MON AUG 03 2015

NOTE: "FAIR" INDICATES FEW OR NO CLOUDS BELOW 12,000 FEET WITH NO
SIGNIFICANT WEATHER AND/OR OBSTRUCTIONS TO VISIBILITY.


CITY           SKY/WX    TMP DP  RH WIND       PRES   REMARKS
WILLISTON      SUNNY     77  47  34 VRB6      30.03F
MINOT          SUNNY     76  45  33 W9        30.01S
MINOT AFB      SUNNY     80  45  29 VRB3      30.00F
BISMARCK       SUNNY     77  50  38 W9        30.02F
DICKINSON      SUNNY     76  48  37 E5        30.02F
GARRISON         N/A     74  49  41 VRB7      30.02F
HETTINGER ARPT SUNNY     77  50  38 VRB6      30.04F
JAMESTOWN      SUNNY     74  46  36 NW12      29.99F
HAZEN            N/A     75  46  35 N6        30.02F
STANLEY        FAIR      73  50  43 NW7       30.04F
$$

CITY           SKY/WX    TMP DP  RH WIND       PRES   REMARKS
GRAND FORKS    MOSUNNY   74  51  44 NW14G21   29.93F
GRAND FORKS AF SUNNY     74  51  44 N15       29.94F
DEVILS LAKE    SUNNY     72  46  40 NW12G17   29.97F
FARGO          SUNNY     77  46  33 N18       29.94F
CAVALIER       FAIR      72  48  43 NW15G21   29.93F
GRAFTON        FAIR      72  52  49 NW15G24   29.94F
GWINNER        FAIR      75  52  43 NW13      29.98F
LANGDON        FAIR      73  43  33 N14G21    29.97S
$$

CITY           SKY/WX    TMP DP  RH WIND       PRES   REMARKS
ABERDEEN       SUNNY     79  49  34 MISG      29.99F
MOBRIDGE       SUNNY     79  56  45 W7        29.99F
BUFFALO          N/A     81  51  35 SE12      29.98F
RAPID CITY     SUNNY     79  57  46 E12       30.04F
GLASGOW        SUNNY     80  47  31 SE12      29.99F
SIDNEY         SUNNY    N/A N/A N/A SE6       30.01F
WOLF POINT     SUNNY     82  49  31 S6        30.00F
GLENDIVE         N/A    N/A N/A N/A MISG        N/A
MILES CITY     SUNNY     85  50  29 SE13      29.97F
BAKER          SUNNY     83  49  30 VRB7      30.03F
$$

CITY           SKY/WX    TMP DP  RH WIND       PRES   REMARKS
BILLINGS       PTSUNNY   78  49  35 VRB6      29.99F
GREAT FALLS    MOSUNNY   85  46  25 NE9       29.91F
$$




USA.gov is the U.S. government's official web portal to all federal, state and local government web resources and services.